OBJECT E, 60749

Orbit data source: Space-Track

You're viewing an Uncataloged Satellite

Recently launched and/or uncataloged satellites may have evolving metadata. Metadata may include but not limited to: Owner, Maufacturer, Bus, Motor, and Mission.

OBJECT E, 60749 is a satellite owned by Taizhou Xingkong (CN) in SSO that was launched on Thu, 29 Aug 2024 UTC via a GUSHENXING 1 launch vehicle from the Yellow Sea Launch Area, China (YSLA). Unknown objects in Earth's orbit typically refer to objects detected orbiting the Earth but have not yet been identified or cataloged. These objects could be anything from previously untracked satellites, spent rocket stages, debris from satellite collisions, or even natural meteoroids temporarily captured by Earth's gravity.

Loading next visibility...
Identifier
60749, 2024-153E
Orbit
SSO
Country
Flag of CNCN / PRC
Related business
None
Manufacturer
Shanghai ASES
Mission
Operational Commercial Imaging
Bus & Motor
SUXING, Unknown motor
Mass
~50 kg wet, ~50 kg dry
Launch date (UTC)
2024-08-29 (1 year ago)
Launch vehicle
GUSHENXING 1
Launch site
Yellow Sea Launch Area, China (YSLA)
Object type
Unknown
Shape & HBR
Box + 1 Pan, 2.5 m
Radar Cross Section
5.339 m², Medium (>0.1 m² and < 1m²)

Expand to show TLE details & history
Last TLE update: 2 days ago

TLE from 2 days ago
0 OBJECT E
1 60749U 24153E   25255.81894521  .00005716  00000-0  28641-3 0  9991
2 60749  97.6462  22.9985 0003191 128.8109 231.3410 15.17767488 57639
Epoch: 2025-09-12T19:39Z
TLE epoch observation values (Epoch: 2025-09-12T19:39:16.866Z)
Latitude
0.00004°
Longitude
96.11703°
Altitude
517.044 km
Speed
7.604 km/s
True Right ascension
01h 31m 59s
True Declination
0° 00' 00"
Sunlit
Object was in full shadow at epoch
Visualization orbit readout
Latitude
Unknown
Longitude
Unknown
Altitude
Unknown
Speed
Unknown
Apparent Right ascension
Unknown
Apparent Declination
Unknown
Sunlit
N/A
Visualization observer readout
Local Sidereal Time
23:28:21
Azimuth
Unknown
Elevation
Unknown
Doppler factor
Unknown
Orbital elements
Apogee altitude
511.767 km
Perigee altitude
507.371 km
Semi-major axis
6,887.706 km
Eccentricity
0.00032
Inclination
97.6462°
RAAN
22.9985°
Arg. of periapsis
128.8109°
True anomaly
231.31245°
Mean anomaly
231.341°
Eccentric anomaly
231.32673°
Mean motion
3.79692 °/min
Orbital period
94.81 mins
BSTAR
0.00028641
Loading maneuver chart data...
Computing Atmospheric mass density...
Loading historical data...
Loading historical data...
Loading historical data...
Loading historical data...
Loading historical data...
Loading historical data...
Loading historical data...

Documentation

Showing up to 5 results
|